Location: Hodgson Observatory
(42.9992°N, 96.7577°W)
Time: 10:53:14
(UTC-06:00)

Daily predictions for brighter satellites

Satellite Brightness Start Highest point End
(mag) Time Altitude Azimuth Time Altitude Azimuth Time Altitude Azimuth
Cosmos 2219 Rocket 3.5 18:33:59 10° N 18:38:07 20° NE 18:42:14 10° E
Cosmos 2360 Rocket 2.2 18:32:30 10° NNW 18:38:09 66° ENE 18:43:47 10° SE
USA 215 4.2 18:33:42 10° NE 18:39:48 44° NNW 18:45:54 10° W
Cosmos 1536 3.9 18:40:29 10° SE 18:43:43 24° E 18:46:58 10° NE
Cosmos 2219 4.0 18:40:08 10° SSE 18:45:05 31° ESE 18:50:03 10° NE
Okean 1 3.5 18:42:07 10° N 18:46:13 79° W 18:50:16 10° S
Cosmos 1954 Rocket 4.0 18:42:15 10° SSW 18:47:25 76° ESE 18:52:40 10° NNE
Cosmos 2181 Rocket 4.0 18:46:45 10° N 18:52:59 64° E 18:59:16 10° SSE
Okean 1 Rocket 3.3 18:57:09 10° SSE 19:01:29 50° E 19:05:50 10° NNE
Cosmos 1602 3.6 18:58:48 10° S 19:02:40 76° E 19:06:36 10° NNE
Cosmos 1709 Rocket 4.0 18:57:35 10° S 19:03:48 88° E 19:10:00 10° N
Cosmos 2074 Rocket 4.4 18:59:13 10° SSE 19:04:57 40° E 19:10:44 10° NNE
Cosmos 1340 3.1 19:02:54 10° NNW 19:06:41 67° W 19:10:25 10° S
Cosmos 2184 Rocket 4.3 19:04:22 10° SSE 19:10:13 42° E 19:16:02 10° NNE
Cosmos 1025 Rocket 3.5 19:07:12 10° N 19:11:20 39° ENE 19:15:27 10° SSE
Meteor 1-11 Rocket 3.8 19:05:45 10° S 19:11:33 76° E 19:17:29 10° NNE
ALOS 2.3 19:09:20 10° SSE 19:13:54 59° ENE 19:18:31 10° N
Cosmos 2333 Rocket 2.9 19:15:10 10° N 19:20:22 33° NE 19:23:54 18° ESE
SL-08 ROCKET BODY 4.5 19:16:01 10° S 19:22:04 60° E 19:28:10 10° NNE
Abrixas rocket 2.5 19:21:00 10° SW 19:24:16 52° SSE 19:25:43 28° E
FREGAT/IRIS 3.4 19:22:53 10° S 19:25:55 55° W 19:28:57 10° NNW
Cosmos 1544 Rocket 4.4 19:26:21 10° SE 19:29:55 26° E 19:33:30 10° NNE
Genesis I 3.7 19:26:46 10° NW 19:30:39 60° WSW 19:34:30 10° SSE
FENGYUN 3A 3.6 19:25:51 10° SSE 19:31:16 83° ENE 19:36:43 10° NNW
Cosmos 1741 Rocket 4.0 19:28:53 10° SSW 19:34:07 90° WNW 19:39:22 10° NNE
Okean 1-7 Rocket 3.6 19:29:47 10° N 19:34:20 88° W 19:38:48 10° S
GPS 2-04 Rocket1 4.2 19:31:10 10° SW 19:34:50 28° S 19:36:30 22° SE
GEOS 3 Rocket 3.8 19:32:27 12° NE 19:37:11 51° ESE 19:42:19 10° SSW
NOSS 0 Rocket 4.2 19:32:34 10° NNW 19:38:30 47° ENE 19:42:06 23° ESE
Cosmos 2285 Rocket 4.0 19:33:07 10° NNW 19:39:34 69° ENE 19:45:56 10° SSE
Cosmos 2154 Rocket 4.4 19:33:50 10° SSE 19:39:34 38° E 19:45:19 10° NNE
FengYun 1-2 T 4.4 19:40:38 10° S 19:46:06 76° WSW 19:51:39 10° NNW
Meteor 1-5 Rocket 4.2 19:40:12 10° S 19:46:09 77° E 19:52:03 10° NNE
Cosmos 405 Rocket 2.7 19:53:50 10° N 19:57:55 68° E 19:58:51 49° SE
CZ-2D R/B 3.2 19:59:21 24° S 20:01:33 83° WSW 20:05:24 10° NNW
Helios 1A 2.8 20:00:23 39° SSE 20:01:50 75° ENE 20:06:00 10° N
Okean 2 3.4 19:58:09 10° N 20:02:20 83° W 20:05:39 16° S
H-2A R/B 3.2 19:59:05 10° S 20:02:44 58° W 20:06:28 10° NNW
Cosmos 468 Rocket 3.9 19:58:05 10° NNW 20:03:20 72° ENE 20:05:35 35° SE
BREEZE-M DEB (TANK) 4.4 20:00:43 10° WNW 20:04:35 76° NNE 20:11:59 29° E
Helios 1B rocket 2.3 20:01:14 10° NNE 20:05:23 67° ESE 20:09:31 10° S
Spot 2 Rocket 4.0 20:02:44 10° S 20:07:42 58° W 20:12:43 10° NNW
Cosmos 2237 Rocket 2.3 20:03:20 10° NNW 20:08:58 57° ENE 20:10:07 48° ESE
COSMOS 2428 3.6 20:04:54 10° NW 20:10:22 49° WSW 20:15:49 10° S
Gbstr 26 Del rocket 3.7 20:07:53 10° W 20:11:25 38° NNW 20:12:04 35° N
Cosmos 2297 Rocket 3.8 20:06:48 10° S 20:08:19 18° SSE 20:08:19 18° SSE
USA 229 DEB 4.0 20:04:56 10° NW 20:12:04 72° WSW 20:17:25 19° SSE
USA 229 4.0 20:05:02 10° NW 20:12:10 73° WSW 20:17:28 20° SSE
Cosmos 1066 Rocket 4.4 20:06:57 10° N 20:12:17 46° ENE 20:12:17 46° ENE
Resurs 01 Rocket 2.8 20:09:45 10° S 20:13:56 43° W 20:18:09 10° NNW
BREEZE-M DEB (TANK) 3.5 20:17:56 10° WNW 20:20:52 45° SSW 20:22:41 33° SSE
Meteor 2-8 Rocket 4.5 20:15:04 10° N 20:21:00 52° ENE 20:21:04 52° E
Atlas Centaur 2 4.4 20:19:01 10° S 20:21:05 13° S 20:21:05 13° S
Cosmos 2219 Rocket 2.4 20:17:02 10° NNW 20:22:37 70° WSW 20:25:25 30° S
Cosmos 1814 Rocket 3.8 20:18:06 10° NNW 20:23:18 81° ENE 20:23:48 71° SE
ERS-1 Rocket 4.1 20:25:14 30° NNE 20:25:14 30° NNE 20:28:09 10° N
Envisat 2.9 20:24:19 65° ENE 20:24:19 65° ENE 20:29:09 10° N
NOSS 3-1 (A) 4.1 20:17:22 10° NNW 20:24:46 58° NE 20:26:48 47° E
USA 32 4.2 20:21:29 10° N 20:25:53 56° NE 20:25:53 56° NE
Cosmos 2219 4.4 20:23:39 10° SW 20:29:04 42° WNW 20:34:31 10° NNE
ATLAS 2AS CENTAUR R/B 4.1 20:23:09 10° NNW 20:29:55 28° NNE 20:31:17 26° NE
Cosmos 2227 Rocket 2.1 20:26:28 10° SSW 20:31:29 65° SSE 20:31:29 65° SSE
NOSS 3-1 (C) 3.9 20:35:39 10° NW 20:43:16 86° NE 20:45:20 56° SE
SL-16 R/B 3.0 20:38:34 10° NNW 20:42:32 38° NNE 20:42:32 38° NNE
Cosmos 2333 Rocket 3.3 20:59:21 10° NW 21:04:41 40° WSW 21:05:58 35° SW
Cosmos 1980 4.5 21:02:27 10° NW 21:07:50 46° WSW 21:08:02 46° WSW
Cosmos 2237 Rocket 4.3 21:48:20 10° NW 21:51:59 21° W 21:51:59 21° W
ATLAS 2AS CENTAUR R/B 4.1 22:14:05 10° NW 22:18:44 38° NNW 22:18:44 38° NNW
